1505156400.03,42877,16.63,73350.5,6.67,5.41,5.41,0,*74
1505156401.26,42878,16.63,73354.0,6.67,5.55,5.51,0,*7F
1505156402.44,42879,16.56,73360.5,6.67,5.63,5.63,0,*7A
1505156403.67,42880,16.56,73362.0,6.67,5.51,5.51,0,*7C
1505156404.84,42881,16.56,73364.8,6.67,5.45,5.41,0,*79
1505156406.04,42882,16.56,73360.5,6.65,5.49,5.49,0,*7C
1505156407.24,42883,16.56,73366.8,6.65,5.59,5.49,0,*7C
1505156408.44,42884,16.63,73356.3,6.65,5.49,5.49,0,*7A
1505156409.64,42885,16.56,73358.0,6.65,5.59,5.63,0,*72
1505156410.84,42886,16.63,73356.0,6.63,5.51,5.49,0,*77
1505156412.03,42887,16.56,73342.5,6.65,5.49,5.49,0,*79
1505156413.24,42888,16.63,73344.3,6.65,5.71,5.63,0,*75
1505156414.44,42889,16.56,73352.8,6.65,5.71,5.71,0,*77
1505156415.69,42890,16.63,73368.8,6.65,5.73,5.73,0,*7F
1505156416.93,42891,16.63,73372.5,6.65,5.73,5.73,0,*7E
1505156418.19,42892,16.56,73360.3,6.65,5.81,5.85,0,*79
1505156419.41,42893,16.63,73352.8,6.67,5.77,5.85,0,*73
1505156420.64,42894,16.63,73356.3,6.67,5.85,5.85,0,*79
1505156421.87,42895,16.56,73370.3,6.67,5.85,5.85,0,*78
1505156423.08,42896,16.63,73380.3,6.67,5.85,5.95,0,*7A
1505156424.31,42897,16.56,73376.0,6.67,5.85,5.85,0,*7A
1505156425.53,42898,16.63,73374.0,6.67,5.77,5.77,0,*75
1505156426.76,42899,16.63,73366.8,6.67,5.77,5.85,0,*79
1505156428.01,42900,16.56,73366.5,6.69,5.89,5.93,0,*70
1505156429.24,42901,16.56,73370.8,6.67,5.85,5.85,0,*74
1505156430.46,42902,16.63,73372.8,6.67,5.77,5.77,0,*77
1505156431.71,42903,16.56,73370.0,6.69,5.81,5.81,0,*78
1505156432.9,42904,16.63,73374.0,6.67,5.67,5.63,0,*75
1505156434.1,42905,16.56,73368.0,6.69,5.59,5.67,0,*73
1505156435.33,42906,16.56,73368.0,6.67,5.55,5.55,0,*73
1505156436.55,42907,16.56,73360.3,6.67,5.55,5.51,0,*76
1505156437.76,42908,16.63,73354.5,6.67,5.63,5.73,0,*7C
1505156438.98,42909,16.63,73346.8,6.67,5.73,5.77,0,*78
1505156440.19,42910,16.56,73340.5,6.67,5.67,5.73,0,*71
1505156441.42,42911,16.63,73344.0,6.67,5.73,5.85,0,*7C
1505156442.65,42912,16.56,73346.8,6.67,5.73,5.77,0,*72
1505156443.87,42913,16.63,73352.3,6.67,5.77,5.77,0,*77
1505156445.09,42914,16.63,73352.0,6.67,5.77,5.77,0,*70
1505156446.32,42915,16.56,73358.5,6.67,5.85,5.85,0,*71
1505156447.55,42916,16.63,73360.5,6.67,5.85,5.89,0,*7E
1505156448.77,42917,16.56,73358.8,6.67,5.77,5.77,0,*73
1505156449.96,42918,16.56,73360.5,6.67,5.67,5.67,0,*7C
1505156451.14,42919,16.56,73364.3,6.67,5.67,5.63,0,*79
1505156452.33,42920,16.56,73364.0,6.67,5.67,5.67,0,*77
1505156453.54,42921,16.56,73358.0,6.69,5.67,5.67,0,*78
1505156454.73,42922,16.56,73356.3,6.67,5.67,5.67,0,*75
1505156455.97,42923,16.56,73352.0,6.69,5.77,5.77,0,*7A
1505156457.19,42924,16.56,73358.0,6.67,5.73,5.77,0,*77
1505156458.42,42925,16.56,73358.3,6.67,5.73,5.73,0,*72
1505156459.63,42926,16.63,73364.0,6.67,5.67,5.73,0,*74
1505156460.81,42927,16.56,73364.0,6.67,5.67,5.67,0,*70
1505156462.02,42928,16.56,73370.8,6.65,5.71,5.71,0,*7D
1505156463.24,42929,16.56,73368.8,6.65,5.81,5.71,0,*73
1505156464.49,42930,16.56,73372.8,6.65,5.81,5.73,0,*79
1505156465.74,42931,16.63,73370.5,6.65,5.73,5.73,0,*75
1505156466.95,42932,16.56,73366.8,6.65,5.71,5.71,0,*76
1505156468.15,42933,16.56,73370.3,6.67,5.63,5.73,0,*74
1505156469.38,42934,16.56,73360.5,6.67,5.73,5.73,0,*72
1505156470.6,42935,16.56,73356.8,6.67,5.73,5.73,0,*73
1505156471.8,42936,16.56,73360.5,6.65,5.71,5.71,0,*72
1505156473.01,42937,16.56,73346.8,6.65,5.59,5.59,0,*73
1505156474.24,42938,16.63,73352.8,6.67,5.73,5.73,0,*7E
1505156475.46,42939,16.56,73352.8,6.67,5.77,5.77,0,*7F
1505156476.68,42940,16.56,73354.5,6.67,5.77,5.77,0,*71
1505156477.93,42941,16.63,73360.0,6.69,5.81,5.89,0,*76
1505156479.15,42942,16.63,73356.8,6.67,5.77,5.85,0,*7E
1505156480.41,42943,16.56,73348.3,6.69,5.89,5.85,0,*70
1505156481.63,42944,16.63,73350.8,6.67,5.85,5.77,0,*78
1505156482.89,42945,16.63,73350.8,6.69,5.89,5.93,0,*71
1505156484.12,42946,16.63,73358.0,6.67,5.85,5.77,0,*7A
1505156485.34,42947,16.63,73364.0,6.67,5.73,5.73,0,*76
1505156486.55,42948,16.63,73366.5,6.67,5.67,5.77,0,*78
1505156487.8,42949,16.56,73360.8,6.69,5.89,5.77,0,*77
1505156489.03,42950,16.63,73368.5,6.67,5.85,5.85,0,*70
1505156490.25,42951,16.63,73372.8,6.67,5.77,5.77,0,*71
1505156491.44,42952,16.63,73368.5,6.67,5.95,5.95,0,*72
1505156492.67,42953,16.63,73372.0,6.67,5.73,5.85,0,*7A
1505156493.9,42954,16.56,73374.0,6.67,5.73,5.85,0,*7D
1505156495.12,42955,16.56,73370.3,6.67,5.77,5.77,0,*75
1505156496.35,42956,16.56,73370.0,6.67,5.73,5.73,0,*76
1505156497.57,42957,16.56,73382.5,6.67,5.73,5.77,0,*73
1505156498.78,42958,16.56,73376.3,6.67,5.67,5.73,0,*7D
1505156500.0,42959,16.63,73372.5,6.67,5.77,5.77,0,*79
1505156501.22,42960,16.63,73372.0,6.67,5.73,5.73,0,*73
1505156502.46,42961,16.56,73376.3,6.69,5.77,5.77,0,*7C
1505156503.69,42962,16.63,73384.5,6.67,5.85,5.77,0,*7C
1505156504.92,42963,16.63,73382.8,6.67,5.85,5.85,0,*70
1505156506.13,42964,16.63,73380.3,6.67,5.67,5.77,0,*76
1505156507.31,42965,16.56,73366.8,6.67,5.63,5.67,0,*72
1505156508.52,42966,16.63,73366.0,6.69,5.71,5.71,0,*7B
1505156509.74,42967,16.56,73364.8,6.67,5.73,5.73,0,*74
1505156510.99,42968,16.56,73370.3,6.69,5.81,5.89,0,*7D
1505156512.22,42969,16.56,73376.0,6.67,5.85,5.73,0,*73
1505156513.44,42970,16.56,73370.3,6.67,5.77,5.77,0,*72
1505156514.66,42971,16.63,73374.8,6.67,5.77,5.73,0,*77
1505156515.88,42972,16.56,73368.8,6.67,5.77,5.77,0,*70
1505156517.11,42973,16.63,73374.5,6.67,5.73,5.77,0,*75
1505156518.35,42974,16.63,73376.5,6.69,5.77,5.77,0,*78
1505156519.59,42975,16.56,73376.0,6.69,5.77,5.77,0,*79
1505156520.81,42976,16.56,73376.0,6.69,5.77,5.71,0,*7C
1505156522.02,42977,16.63,73378.5,6.67,5.73,5.67,0,*70
1505156523.21,42978,16.56,73374.0,6.67,5.67,5.67,0,*7A
1505156524.44,42979,16.56,73362.8,6.67,5.73,5.73,0,*7B
1505156525.67,42980,16.56,73356.3,6.67,5.73,5.73,0,*7D
1505156526.91,42981,16.63,73356.0,6.69,5.77,5.81,0,*7B
1505156528.15,42982,16.56,73358.0,6.69,5.77,5.77,0,*71
1505156529.38,42983,16.63,73360.3,6.67,5.73,5.85,0,*77
1505156530.61,42984,16.56,73366.5,6.67,5.85,5.85,0,*79
1505156531.83,42985,16.56,73360.5,6.67,5.77,5.77,0,*78
1505156533.06,42986,16.56,73348.8,6.67,5.73,5.77,0,*7F
1505156534.29,42987,16.56,73352.0,6.67,5.73,5.73,0,*7A
1505156535.52,42988,16.63,73358.5,6.67,5.73,5.73,0,*75
1505156536.76,42989,16.56,73360.8,6.69,5.77,5.73,0,*7E
1505156537.98,42990,16.56,73358.0,6.67,5.73,5.73,0,*7C
1505156539.21,42991,16.63,73362.5,6.67,5.77,5.73,0,*79
1505156540.43,42992,16.63,73360.8,6.67,5.73,5.73,0,*7E
1505156541.66,42993,16.56,73368.8,6.67,5.85,5.85,0,*7F
1505156542.88,42994,16.63,73366.0,6.67,5.77,5.77,0,*78
1505156544.11,42995,16.56,73364.8,6.67,5.85,5.85,0,*79
1505156545.35,42996,16.56,73374.5,6.67,5.89,5.89,0,*7A
1505156546.58,42997,16.56,73378.5,6.67,5.89,5.89,0,*7B
1505156547.8,42998,16.56,73380.0,6.67,5.89,5.95,0,*79
1505156549.04,42999,16.63,73382.3,6.65,5.77,5.77,0,*77
1505156550.29,43000,16.63,73378.5,6.69,5.89,5.93,0,*78
1505156551.54,43001,16.56,73364.3,6.69,5.81,5.89,0,*7A
1505156552.79,43002,16.56,73358.5,6.69,5.81,5.89,0,*79
1505156554.01,43003,16.63,73354.5,6.67,5.77,5.77,0,*7E
1505156555.24,43004,16.63,73348.0,6.67,5.77,5.85,0,*74
1505156556.46,43005,16.63,73366.8,6.67,5.77,5.77,0,*78
1505156557.68,43006,16.63,73374.8,6.67,5.77,5.73,0,*7F
1505156558.92,43007,16.56,73364.3,6.69,5.77,5.77,0,*74
1505156560.14,43008,16.63,73366.5,6.69,5.55,5.59,0,*77
1505156561.37,43009,16.56,73370.5,6.67,5.73,5.73,0,*74
1505156562.57,43010,16.63,73376.0,6.69,5.71,5.71,0,*72
1505156563.76,43011,16.56,73376.5,6.67,5.63,5.63,0,*7D
1505156564.98,43012,16.56,73376.8,6.67,5.73,5.73,0,*7E
1505156566.21,43013,16.63,73380.8,6.67,5.77,5.77,0,*7F
1505156567.43,43014,16.63,73378.0,6.67,5.77,5.77,0,*78
1505156568.65,43015,16.56,73374.3,6.67,5.85,5.77,0,*74
1505156569.88,43016,16.56,73370.0,6.67,5.85,5.77,0,*77
1505156571.13,43017,16.56,73370.5,6.69,5.89,5.89,0,*75
1505156572.38,43018,16.56,73370.5,6.69,5.81,5.89,0,*72
1505156573.6,43019,16.63,73372.8,6.69,5.71,5.77,0,*7D
1505156574.83,43020,16.63,73368.5,6.69,5.71,5.77,0,*77
1505156576.01,43021,16.56,73362.5,6.67,5.63,5.67,0,*7A
1505156577.24,43022,16.63,73354.5,6.67,5.55,5.55,0,*7D
1505156578.45,43023,16.63,73362.3,6.67,5.73,5.67,0,*79
1505156579.67,43024,16.63,73362.3,6.67,5.77,5.77,0,*7B
1505156580.89,43025,16.56,73366.0,6.67,5.77,5.77,0,*7A
1505156582.11,43026,16.56,73366.8,6.67,5.77,5.77,0,*79
1505156583.34,43027,16.63,73364.5,6.67,5.77,5.89,0,*79
1505156584.59,43028,16.63,73366.8,6.69,5.81,5.89,0,*71
1505156585.81,43029,16.63,73366.8,6.71,5.81,5.77,0,*78
1505156587.04,43030,16.56,73370.0,6.67,5.85,5.85,0,*7E
1505156588.27,43031,16.63,73374.5,6.67,5.85,5.85,0,*7F
1505156589.5,43032,16.56,73372.0,6.67,5.73,5.73,0,*7C
1505156590.73,43033,16.56,73368.0,6.67,5.73,5.73,0,*7D
1505156591.95,43034,16.63,73378.5,6.67,5.73,5.73,0,*7A
1505156593.18,43035,16.63,73380.3,6.67,5.73,5.73,0,*7B
1505156594.4,43036,16.56,73376.3,6.67,5.77,5.85,0,*75
1505156595.65,43037,16.63,73372.8,6.69,5.77,5.77,0,*77
1505156596.9,43038,16.63,73378.8,6.69,5.81,5.81,0,*78
1505156598.15,43039,16.56,73372.8,6.69,5.89,5.89,0,*79
1505156599.4,43040,16.63,73380.3,6.69,5.89,5.89,0,*77
1505156600.63,43041,16.56,73380.8,6.67,5.77,5.77,0,*78
1505156601.83,43042,16.63,73378.5,6.69,5.71,5.67,0,*72
1505156603.04,43043,16.63,73384.8,6.69,5.67,5.67,0,*74
1505156604.22,43044,16.63,73376.0,6.67,5.67,5.63,0,*79
1505156605.41,43045,16.56,73366.0,6.67,5.67,5.67,0,*7C
1505156606.66,43046,16.63,73360.5,6.69,5.77,5.81,0,*78
1505156607.86,43047,16.56,73368.3,6.69,5.67,5.59,0,*7D
1505156609.05,43048,16.56,73364.0,6.67,5.63,5.63,0,*71
1505156610.3,43049,16.56,73366.0,6.69,5.81,5.89,0,*76
1505156611.55,43050,16.63,73376.3,6.69,5.89,5.89,0,*76
1505156612.78,43051,16.56,73374.3,6.67,5.85,5.89,0,*75
1505156614.03,43052,16.56,73366.0,6.69,5.77,5.89,0,*75
1505156615.28,43053,16.63,73362.0,6.69,5.89,5.93,0,*7E
1505156616.51,43054,16.56,73362.8,6.67,5.85,5.89,0,*70
1505156617.74,43055,16.56,73362.0,6.69,5.93,5.99,0,*79
1505156618.98,43056,16.56,73368.3,6.69,5.89,5.99,0,*71
1505156620.17,43057,16.56,73366.0,6.67,5.95,5.99,0,*73
1505156621.38,43058,16.56,73368.5,6.67,5.89,5.95,0,*7D
1505156622.56,43059,16.56,73372.5,6.67,5.95,5.95,0,*71
1505156623.77,43060,16.56,73374.3,6.69,5.99,5.99,0,*75
1505156625.03,43061,16.56,73376.3,6.69,5.93,5.93,0,*74
1505156626.24,43062,16.56,73378.5,6.67,5.93,5.95,0,*7F
1505156627.47,43063,16.63,73378.5,6.67,5.89,5.85,0,*74
1505156628.7,43064,16.56,73380.5,6.67,5.73,5.85,0,*76
1505156629.88,43065,16.56,73378.0,6.71,5.71,5.71,0,*79
1505156631.13,43066,16.63,73384.3,6.69,5.81,5.89,0,*7B
1505156632.39,43067,16.56,73374.0,6.69,5.89,5.93,0,*79
1505156633.64,43068,16.63,73376.8,6.69,5.81,5.89,0,*75
1505156634.89,43069,16.56,73364.0,6.69,5.81,5.81,0,*7C
1505156636.13,43070,16.63,73366.5,6.69,5.77,5.81,0,*7D
1505156637.37,43071,16.56,73368.0,6.69,5.77,5.77,0,*75
1505156638.61,43072,16.63,73370.5,6.69,5.77,5.77,0,*76
1505156639.86,43073,16.56,73356.0,6.69,5.81,5.89,0,*7F
1505156641.06,43074,16.56,73348.8,6.69,5.71,5.71,0,*70
1505156642.29,43075,16.56,73352.5,6.71,5.55,5.55,0,*78
1505156643.46,43076,16.56,73354.5,6.67,5.45,5.45,0,*7C
1505156644.66,43077,16.56,73358.3,6.69,5.37,5.37,0,*73
1505156645.85,43078,16.56,73356.3,6.67,5.23,5.19,0,*7B
1505156647.02,43079,16.56,73362.8,6.67,5.41,5.41,0,*73
1505156648.23,43080,16.56,73360.3,6.67,5.41,5.51,0,*74
1505156649.43,43081,16.56,73360.8,6.67,5.55,5.63,0,*71
1505156650.67,43082,16.56,73362.5,6.69,5.77,5.77,0,*79
1505156651.9,43083,16.56,73370.0,6.67,5.77,5.85,0,*7B
1505156653.15,43084,16.63,73370.3,6.69,5.93,5.93,0,*7F
1505156654.41,43085,16.56,73374.3,6.69,5.93,5.89,0,*75
1505156655.64,43086,16.63,73374.5,6.67,5.89,5.89,0,*73
1505156656.88,43087,16.56,73364.0,6.67,5.89,5.89,0,*72
1505156658.13,43088,16.56,73364.8,6.69,5.89,5.89,0,*73
1505156659.33,43089,16.56,73372.5,6.69,5.71,5.71,0,*72
1505156660.55,43090,16.56,73378.0,6.69,5.71,5.77,0,*7C
1505156661.8,43091,16.56,73380.0,6.69,5.81,5.81,0,*7B
1505156663.05,43092,16.56,73376.3,6.69,5.81,5.81,0,*78
1505156664.31,43093,16.56,73372.5,6.69,5.81,5.81,0,*79
1505156665.53,43094,16.63,73384.3,6.69,5.71,5.81,0,*71
1505156666.74,43095,16.56,73380.3,6.69,5.67,5.59,0,*72
1505156667.96,43096,16.56,73376.3,6.69,5.71,5.77,0,*7A
1505156669.2,43097,16.63,73382.0,6.69,5.77,5.89,0,*7C
1505156670.42,43098,16.63,73378.0,6.67,5.77,5.77,0,*7C
1505156671.68,43099,16.56,73370.5,6.69,5.89,5.85,0,*7F
1505156672.93,43100,16.56,73370.0,6.69,5.93,5.93,0,*72
1505156674.19,43101,16.63,73366.5,6.69,5.93,5.93,0,*73
1505156675.44,43102,16.63,73356.0,6.69,5.89,5.89,0,*70
1505156676.65,43103,16.56,73346.0,6.67,5.55,5.67,0,*7E
1505156677.84,43104,16.56,73356.5,6.67,5.67,5.67,0,*78
1505156679.02,43105,16.63,73362.3,6.67,5.67,5.67,0,*79
1505156680.23,43106,16.56,73362.8,6.69,5.67,5.71,0,*73
1505156681.48,43107,16.56,73374.0,6.69,5.81,5.81,0,*75
1505156682.71,43108,16.56,73366.0,6.67,5.73,5.73,0,*74
1505156683.91,43109,16.56,73362.0,6.67,5.67,5.73,0,*70
1505156685.17,43110,16.56,73372.8,6.69,5.89,5.89,0,*73
1505156686.42,43111,16.56,73376.8,6.69,5.89,5.81,0,*7A
1505156687.66,43112,16.63,73376.0,6.67,5.89,5.89,0,*7F
1505156688.89,43113,16.56,73378.3,6.69,5.93,5.99,0,*7A
1505156690.11,43114,16.56,73380.0,6.67,5.77,5.77,0,*79
1505156691.32,43115,16.63,73376.8,6.69,5.71,5.67,0,*71
1505156692.52,43116,16.56,73374.3,6.69,5.59,5.67,0,*78
1505156693.73,43117,16.63,73372.5,6.69,5.67,5.67,0,*74
1505156694.98,43118,16.63,73374.3,6.69,5.81,5.77,0,*72
1505156696.23,43119,16.56,73372.5,6.69,5.81,5.81,0,*7A
1505156697.45,43120,16.63,73376.8,6.67,5.77,5.85,0,*73
1505156698.67,43121,16.56,73378.8,6.67,5.77,5.77,0,*7F
1505156699.89,43122,16.56,73376.8,6.67,5.77,5.77,0,*7C
1505156701.13,43123,16.56,73376.5,6.69,5.77,5.77,0,*73
1505156702.36,43124,16.56,73376.3,6.71,5.89,5.77,0,*7C
1505156703.61,43125,16.56,73374.0,6.69,5.81,5.81,0,*75
1505156704.87,43126,16.56,73372.8,6.69,5.89,5.89,0,*76
1505156706.09,43127,16.56,73370.0,6.67,5.77,5.89,0,*78
1505156707.31,43128,16.63,73370.5,6.67,5.77,5.77,0,*76
1505156708.56,43129,16.56,73362.5,6.69,5.81,5.81,0,*79
1505156709.81,43130,16.56,73364.5,6.69,5.81,5.89,0,*79
1505156711.07,43131,16.56,73366.3,6.69,5.89,5.89,0,*70
1505156712.32,43132,16.56,73364.8,6.69,5.89,5.89,0,*73
1505156713.57,43133,16.56,73360.5,6.69,5.81,5.81,0,*72
1505156714.82,43134,16.56,73354.5,6.69,5.81,5.81,0,*75
1505156716.06,43135,16.56,73358.5,6.69,5.77,5.77,0,*74
1505156717.25,43136,16.56,73354.3,6.67,5.63,5.63,0,*79
1505156718.46,43137,16.56,73352.5,6.69,5.67,5.59,0,*7B
1505156719.66,43138,16.56,73354.5,6.69,5.67,5.59,0,*74
1505156720.87,43139,16.63,73356.8,6.69,5.67,5.59,0,*75
1505156722.07,43140,16.56,73356.0,6.69,5.59,5.59,0,*76
1505156723.28,43141,16.63,73358.5,6.69,5.67,5.67,0,*77
1505156724.51,43142,16.63,73364.8,6.69,5.77,5.71,0,*72
1505156725.75,43143,16.63,73368.3,6.69,5.77,5.81,0,*7C
1505156727.0,43144,16.56,73370.8,6.69,5.81,5.89,0,*7A
1505156728.22,43145,16.63,73372.3,6.67,5.77,5.85,0,*70
1505156729.45,43146,16.56,73374.8,6.67,5.85,5.85,0,*7E
1505156730.68,43147,16.56,73378.8,6.67,5.77,5.77,0,*7F
1505156731.93,43148,16.56,73372.0,6.69,5.89,5.89,0,*7E
1505156733.18,43149,16.56,73372.5,6.69,5.89,5.89,0,*7F
1505156734.43,43150,16.56,73372.3,6.69,5.81,5.89,0,*7F
1505156735.66,43151,16.56,73372.0,6.69,5.99,5.93,0,*7C
1505156736.9,43152,16.63,73370.5,6.69,5.77,5.77,0,*75
1505156738.11,43153,16.56,73370.5,6.69,5.67,5.67,0,*74
1505156739.31,43154,16.56,73366.3,6.71,5.71,5.77,0,*7C
1505156740.55,43155,16.56,73370.0,6.69,5.77,5.81,0,*7B
1505156741.81,43156,16.56,73378.0,6.69,5.89,5.85,0,*7D
1505156743.05,43157,16.56,73378.3,6.69,5.77,5.77,0,*70
1505156744.27,43158,16.63,73388.8,6.69,5.77,5.71,0,*79
1505156745.49,43159,16.56,73384.3,6.69,5.71,5.81,0,*71
1505156746.68,43160,16.56,73382.8,6.67,5.63,5.63,0,*7A
1505156747.9,43161,16.56,73366.3,6.67,5.55,5.55,0,*7B
1505156749.11,43162,16.63,73364.8,6.69,5.67,5.67,0,*76
1505156750.35,43163,16.56,73368.8,6.69,5.77,5.77,0,*77
1505156751.58,43164,16.63,73372.0,6.67,5.77,5.85,0,*73
1505156752.78,43165,16.63,73372.3,6.67,5.67,5.73,0,*7A
1505156753.99,43166,16.63,73374.0,6.67,5.67,5.73,0,*79
1505156755.22,43167,16.56,73364.8,6.67,5.73,5.73,0,*7D
1505156756.44,43168,16.56,73364.5,6.69,5.71,5.77,0,*7A
1505156757.68,43169,16.56,73356.3,6.69,5.81,5.77,0,*74
1505156758.87,43170,16.56,73360.5,6.67,5.67,5.67,0,*7B
1505156760.1,43171,16.63,73372.0,6.69,5.77,5.67,0,*75
1505156761.3,43172,16.63,73378.0,6.67,5.73,5.63,0,*78
1505156762.5,43173,16.63,73370.5,6.69,5.49,5.45,0,*7A
1505156763.75,43174,16.56,73374.0,6.69,5.55,5.55,0,*71
1505156764.95,43175,16.63,73384.8,6.67,5.67,5.73,0,*7B
1505156766.17,43176,16.56,73374.8,6.67,5.77,5.73,0,*79
1505156767.43,43177,16.56,73382.0,6.69,5.89,5.81,0,*7A
1505156768.66,43178,16.63,73380.0,6.67,5.85,5.89,0,*7F
1505156769.88,43179,16.63,73378.0,6.67,5.85,5.77,0,*7F
1505156771.13,43180,16.63,73380.8,6.69,5.77,5.81,0,*73
1505156772.33,43181,16.63,73384.0,6.67,5.67,5.73,0,*70
1505156773.51,43182,16.63,73382.3,6.71,5.71,5.71,0,*71
1505156774.72,43183,16.56,73378.5,6.67,5.67,5.73,0,*72
1505156775.9,43184,16.63,73374.8,6.67,5.67,5.67,0,*70
1505156777.09,43185,16.56,73372.3,6.67,5.67,5.67,0,*71
1505156778.28,43186,16.56,73370.5,6.67,5.63,5.67,0,*76
1505156779.47,43187,16.56,73372.5,6.67,5.67,5.67,0,*73
1505156780.7,43188,16.56,73370.8,6.71,5.89,5.77,0,*7A
1505156781.95,43189,16.63,73374.5,6.69,5.81,5.93,0,*70
1505156783.2,43190,16.56,73370.8,6.69,5.89,5.81,0,*73
1505156784.39,43191,16.56,73370.5,6.67,5.67,5.67,0,*74
1505156785.62,43192,16.63,73370.3,6.67,5.85,5.85,0,*77
1505156786.83,43193,16.63,73368.5,6.67,5.89,5.95,0,*7B
1505156788.09,43194,16.56,73354.5,6.69,5.93,5.93,0,*7F
1505156789.34,43195,16.63,73352.3,6.69,5.93,5.93,0,*7E
1505156790.57,43196,16.56,73354.5,6.67,5.85,5.77,0,*7E
1505156791.79,43197,16.56,73354.5,6.67,5.77,5.85,0,*7F
1505156793.02,43198,16.63,73364.5,6.67,5.77,5.77,0,*7D
1505156794.25,43199,16.56,73364.0,6.67,5.85,5.85,0,*7C
1505156795.47,43200,16.56,73360.3,6.67,5.55,5.55,0,*7F
1505156796.72,43201,16.56,73360.0,6.69,5.55,5.55,0,*70
1505156797.9,43202,16.63,73364.8,6.67,5.41,5.45,0,*79
1505156799.12,43203,16.63,73360.3,6.67,5.55,5.51,0,*78
1505156800.35,43204,16.63,73360.3,6.67,5.55,5.51,0,*7F
1505156801.55,43205,16.63,73360.5,6.67,5.55,5.45,0,*7B
1505156802.75,43206,16.56,73356.3,6.67,5.51,5.45,0,*7C
1505156803.96,43207,16.56,73352.3,6.67,5.63,5.55,0,*7D
1505156805.14,43208,16.63,73354.0,6.67,5.67,5.63,0,*73
1505156806.37,43209,16.63,73350.8,6.67,5.55,5.55,0,*76
1505156807.57,43210,16.56,73342.8,6.67,5.55,5.63,0,*7B
1505156808.78,43211,16.63,73358.8,6.67,5.73,5.67,0,*7A
1505156809.99,43212,16.63,73360.3,6.69,5.67,5.71,0,*75
1505156811.18,43213,16.56,73362.8,6.67,5.67,5.67,0,*7D
1505156812.36,43214,16.63,73362.5,6.67,5.63,5.63,0,*7A
1505156813.54,43215,16.56,73364.8,6.67,5.63,5.63,0,*7B
1505156814.77,43216,16.63,73372.3,6.67,5.55,5.55,0,*78
1505156815.97,43217,16.56,73368.3,6.67,5.51,5.63,0,*78
1505156817.18,43218,16.56,73370.3,6.67,5.55,5.67,0,*77
1505156818.37,43219,16.63,73372.3,6.67,5.67,5.67,0,*77
1505156819.59,43220,16.63,73368.5,6.69,5.77,5.71,0,*75
1505156820.78,43221,16.56,73366.0,6.67,5.67,5.67,0,*7C
1505156821.96,43222,16.63,73366.5,6.67,5.67,5.67,0,*7F
1505156823.18,43223,16.56,73360.5,6.67,5.73,5.67,0,*7B
1505156824.38,43224,16.63,73356.5,6.67,5.73,5.63,0,*78
1505156825.59,43225,16.56,73356.0,6.67,5.73,5.67,0,*7D
1505156826.82,43226,16.56,73354.0,6.67,5.73,5.77,0,*7F
1505156828.04,43227,16.63,73350.5,6.67,5.77,5.77,0,*7A
1505156829.3,43228,16.63,73346.8,6.69,5.89,5.81,0,*73
1505156830.52,43229,16.63,73348.5,6.67,5.77,5.85,0,*79
1505156831.75,43230,16.56,73350.0,6.67,5.73,5.73,0,*7C
1505156832.98,43231,16.56,73354.5,6.67,5.55,5.55,0,*7D
1505156834.18,43232,16.56,73358.5,6.67,5.67,5.73,0,*7B
1505156835.4,43233,16.63,73354.0,6.69,5.77,5.71,0,*77
1505156836.59,43234,16.63,73348.3,6.67,5.67,5.63,0,*7C
1505156837.79,43235,16.56,73350.5,6.67,5.67,5.73,0,*7C
1505156839.02,43236,16.63,73358.5,6.67,5.73,5.73,0,*7A
1505156840.27,43237,16.63,73360.3,6.69,5.81,5.81,0,*75
1505156841.49,43238,16.56,73354.5,6.67,5.77,5.77,0,*74
1505156842.72,43239,16.63,73362.5,6.67,5.77,5.85,0,*78
1505156843.9,43240,16.56,73356.8,6.67,5.67,5.63,0,*7F
1505156845.09,43241,16.56,73358.5,6.67,5.63,5.63,0,*7A
1505156846.27,43242,16.63,73356.5,6.67,5.63,5.63,0,*79
1505156847.5,43243,16.56,73358.5,6.67,5.73,5.73,0,*78
1505156848.75,43244,16.56,73352.3,6.69,5.89,5.77,0,*70
1505156849.93,43245,16.56,73352.5,6.67,5.67,5.63,0,*7A
1505156851.14,43246,16.63,73354.8,6.67,5.55,5.67,0,*7C
1505156852.36,43247,16.63,73350.8,6.67,5.51,5.55,0,*78
1505156853.55,43248,16.56,73354.8,6.67,5.63,5.63,0,*73
1505156854.73,43249,16.63,73348.5,6.67,5.67,5.63,0,*76
1505156855.92,43250,16.56,73342.0,6.67,5.63,5.63,0,*7A
1505156857.14,43251,16.63,73356.8,6.67,5.55,5.55,0,*7B
1505156858.33,43252,16.56,73366.3,6.67,5.63,5.67,0,*7C
1505156859.58,43253,16.63,73368.8,6.65,5.73,5.81,0,*76
1505156860.83,43254,16.56,73368.8,6.65,5.73,5.73,0,*7C
1505156862.05,43255,16.63,73374.0,6.67,5.77,5.77,0,*7F
1505156863.25,43256,16.56,73374.3,6.65,5.71,5.71,0,*7E
1505156864.46,43257,16.63,73372.0,6.67,5.67,5.77,0,*7C
1505156865.68,43258,16.56,73360.5,6.67,5.55,5.55,0,*72
1505156866.91,43259,16.56,73360.5,6.67,5.55,5.55,0,*73
1505156868.11,43260,16.56,73358.8,6.67,5.63,5.73,0,*78
1505156869.32,43261,16.56,73356.5,6.67,5.67,5.77,0,*79
1505156870.54,43262,16.56,73358.0,6.67,5.77,5.73,0,*7F
1505156871.77,43263,16.56,73360.3,6.67,5.73,5.77,0,*7E
1505156872.99,43264,16.63,73356.0,6.67,5.77,5.73,0,*79
1505156874.21,43265,16.56,73346.8,6.67,5.77,5.85,0,*71
1505156875.44,43266,16.56,73352.8,6.67,5.85,5.89,0,*73
1505156876.7,43267,16.56,73358.3,6.69,5.89,5.93,0,*7B
1505156877.92,43268,16.56,73358.5,6.67,5.77,5.77,0,*71
1505156879.14,43269,16.56,73358.0,6.67,5.85,5.77,0,*7D
1505156880.37,43270,16.56,73354.0,6.67,5.85,5.85,0,*78
1505156881.6,43271,16.56,73352.0,6.67,5.73,5.73,0,*79
1505156882.83,43272,16.56,73350.0,6.67,5.73,5.73,0,*7A
1505156884.01,43273,16.56,73354.8,6.67,5.67,5.63,0,*7F
1505156885.2,43274,16.63,73358.0,6.67,5.67,5.67,0,*7C
1505156886.41,43275,16.56,73356.3,6.67,5.55,5.63,0,*78
1505156887.63,43276,16.56,73344.3,6.69,5.55,5.59,0,*7C
1505156888.83,43277,16.56,73356.0,6.67,5.55,5.63,0,*7A
1505156890.04,43278,16.56,73352.5,6.67,5.67,5.77,0,*71
1505156891.24,43279,16.63,73358.5,6.67,5.55,5.63,0,*74
1505156892.46,43280,16.63,73352.8,6.67,5.55,5.55,0,*77
1505156893.65,43281,16.56,73346.3,6.67,5.63,5.63,0,*76
1505156894.83,43282,16.56,73346.3,6.67,5.63,5.63,0,*75
1505156896.02,43283,16.56,73346.5,6.67,5.67,5.67,0,*74
1505156897.21,43284,16.63,73348.5,6.67,5.67,5.67,0,*73
1505156898.39,43285,16.63,73350.0,6.67,5.63,5.63,0,*72
1505156899.6,43286,16.56,73344.5,6.65,5.63,5.59,0,*7A
1505156900.78,43287,16.56,73350.3,6.63,5.71,5.71,0,*74
1505156902.01,43288,16.63,73352.5,6.67,5.73,5.73,0,*7F
1505156903.21,43289,16.56,73348.8,6.65,5.71,5.71,0,*7C
1505156904.46,43290,16.56,73350.3,6.65,5.81,5.73,0,*79
1505156905.68,43291,16.56,73346.8,6.67,5.77,5.85,0,*7A
1505156906.91,43292,16.63,73350.8,6.67,5.85,5.85,0,*74
1505156908.14,43293,16.56,73348.0,6.67,5.85,5.89,0,*79
1505156909.4,43294,16.56,73350.3,6.69,5.93,5.93,0,*7C
1505156910.65,43295,16.63,73350.0,6.69,5.81,5.81,0,*7D
1505156911.85,43296,16.63,73352.3,6.67,5.67,5.73,0,*75
1505156913.08,43297,16.56,73352.3,6.67,5.73,5.73,0,*71
1505156914.3,43298,16.63,73354.3,6.67,5.77,5.85,0,*73
1505156915.49,43299,16.56,73352.5,6.67,5.67,5.67,0,*7F
1505156916.68,43300,16.56,73356.0,6.67,5.67,5.67,0,*7E
1505156917.88,43301,16.63,73360.5,6.69,5.71,5.71,0,*71
1505156919.11,43302,16.63,73366.5,6.67,5.55,5.55,0,*7C
1505156920.29,43303,16.63,73366.3,6.67,5.63,5.63,0,*7D
1505156921.48,43304,16.63,73360.3,6.67,5.67,5.67,0,*7A
1505156922.68,43305,16.56,73358.0,6.65,5.71,5.71,0,*79
1505156923.91,43306,16.56,73360.0,6.67,5.73,5.73,0,*78
1505156925.13,43307,16.63,73364.3,6.67,5.77,5.85,0,*74
1505156926.36,43308,16.56,73362.0,6.67,5.85,5.89,0,*7A
1505156927.58,43309,16.63,73364.5,6.67,5.89,5.95,0,*7A
1505156928.81,43310,16.56,73366.0,6.67,5.89,5.89,0,*7F
1505156930.02,43311,16.56,73368.0,6.69,5.99,5.99,0,*70
1505156931.27,43312,16.63,73374.0,6.69,5.93,5.93,0,*73
1505156932.46,43313,16.56,73372.8,6.67,5.99,5.99,0,*7C